Regional Weather Roundup
Issued by NWS

Home | Current Version | Previous Version | Text Only | Print | Product List | Glossary On
Versions: 1 2 3 4 5 6 7 8 9 10 11 12 13 14 15 16 17 18 19 20 21 22 23 24 25 26 27 28 29 30 31 32 33 34 35 36 37 38 39 40 41 42 43 44 45 46 47 48 49 50
665
ASUS44 KLIX 260312
RWRLA
LOUISIANA WEATHER ROUNDUP
NATIONAL WEATHER SERVICE NEW ORLEANS LA
900 PM CST SUN FEB 25 2018

NOTE: "FAIR" INDICATES FEW OR NO CLOUDS BELOW 12,000 FEET WITH NO
      SIGNIFICANT WEATHER AND/OR OBSTRUCTIONS TO VISIBILITY.
      SKY/WX - SKY CONDITION AND SIGNIFICANT WEATHER.
      TMP - AIR TEMPERATURE.    DP   - DEWPOINT TEMPERATURE.
      RH  - RELATIVE HUMIDITY.  PRES - PRESSURE.
      HX  - HEAT INDEX.         WCI  - WIND CHILL INDEX.

*  THESE STATIONS ARE NOT NWS OR FAA STATIONS AND ARE NOT UNDER
   NWS QUALITY CONTROL.

LAZ040-048-061>063-065-066-069-260400-
SOUTHEAST LOUISIANA

CITY           SKY/WX    TMP DP  RH WIND       PRES   REMARKS
N.O. INTL ARPT CLOUDY    70  65  84 SE9       30.02F
N.O. LAKEFRONT CLOUDY    70  64  81 SE18G25   30.03F
N.O. DOWNTOWN* CLOUDY    70  64  81 S8        30.05R
RESERVE*       CLOUDY    70  64  83 SE9       30.02F
SLIDELL        CLOUDY    69  63  81 SE12      30.03F
BATON ROUGE    LGT RAIN  66  63  90 SE10      29.99R
BOOTHVILLE     CLOUDY    66  64  93 E8        30.07R
BELLE CHASSE   CLOUDY    70  68  93 SE14      30.03S
BOGALUSA*      CLOUDY    67  60  78 E5        30.04F
GALLIANO*      CLOUDY    70  65  82 SE12G17   30.05R
NEW ROADS*     HVY RAIN  61  58  88 NE6       30.01R
GONZALES*      LGT RAIN  67  65  91 SE8       30.01R
HAMMOND*       RAIN      64  63  94 SE6       30.02S
HOUMA*         CLOUDY    70  67  89 SE13      30.03S
PORT FOURCHON* MOCLDY    70  68  94 E13       30.05S

$$

LAZ041-044-053-054-260400-
SOUTHWEST LOUISIANA

CITY           SKY/WX    TMP DP  RH WIND       PRES   REMARKS
LAKE CHARLES   LGT RAIN  61  60  97 NE9       30.01R
LAFAYETTE      CLOUDY    71  70  96 S6        29.99R
PATTERSON      CLOUDY    69  68  96 MISG      30.02S
SALT POINT       N/A     69  67  93 SE9       30.01R
NEW IBERIA     LGT RAIN  70  67  90 SE13      30.00R
CHENAULT AIRPK NOT AVBL

$$

LAZ027-028-260400-
CENTRAL LOUISIANA

CITY           SKY/WX    TMP DP  RH WIND       PRES   REMARKS
FORT POLK      LGT RAIN  58  57  98 E3        30.04R FOG
ALEXANDRIA INT RAIN      56  56 100 CALM      30.03R
ALEXANDRIA     LGT RAIN  55  55 100 E3        30.03F

$$

LAZ001-002-260400-
NORTHWEST LOUISIANA

CITY           SKY/WX    TMP DP  RH WIND       PRES   REMARKS
SHREVEPORT     CLOUDY    52  50  93 N7        30.05R
BARKSDALE AFB  CLOUDY    51  49  94 N5        30.05R
DTN SHREVEPORT CLOUDY    52  50  93 N6        30.06R

$$

LAZ014-016-260400-
NORTHEAST LOUISIANA

CITY           SKY/WX    TMP DP  RH WIND       PRES   REMARKS
MONROE         RAIN      53  52  96 SE8       30.04F FOG
TALLULAH       LGT RAIN  56  56 100 E6        30.06F

$$





USA.gov is the U.S. government's official web portal to all federal, state and local government web resources and services.